When you browse on this site, cookies collect data to enhance your experience and personalize the content and advertising you see.
Visit our Privacy Policy to learn more. By continuing to use the site, you agree to this use of cookies and data.
  • In Hungary
  • List of Countries
  • For 7 days
  • Water Temperature
  • Satellite Maps
  • Weather Map
  • News
  • Weather Widgets
  • user-avatar
    Login

    Hourly Weather Vidrodzhenivs'ke

    Today, 19 July, Friday

    Time Temperature Precipitation Wind Pressure Humidity
    00:00 +14°C° 0 mm 2 mps 740 mmHg 84%
    01:00 +14°C° 0 mm 2 mps 740 mmHg 86%
    02:00 +13°C° 0 mm 2 mps 740 mmHg 84%
    03:00 +13°C° 0 mm 2 mps 741 mmHg 85%
    04:00 +14°C° 0 mm 2 mps 741 mmHg 86%
    05:00 +14°C° 0 mm 2 mps 741 mmHg 87%
    06:00 +14°C° 0 mm 3 mps 741 mmHg 83%
    07:00 +17°C° 0 mm 4 mps 742 mmHg 78%
    08:00 +19°C° 0 mm 4 mps 742 mmHg 73%
    09:00 +20°C° 0 mm 5 mps 742 mmHg 70%
    10:00 +21°C° 0 mm 5 mps 742 mmHg 66%
    11:00 +22°C° 0 mm 5 mps 742 mmHg 63%
    12:00 +22°C° 0.1 mm 5 mps 742 mmHg 63%
    13:00 +23°C° 0.1 mm 5 mps 742 mmHg 63%
    14:00 +23°C° 0 mm 5 mps 742 mmHg 63%
    15:00 +23°C° 0.2 mm 4 mps 742 mmHg 65%
    16:00 +22°C° 0.2 mm 4 mps 742 mmHg 67%
    17:00 +22°C° 0.2 mm 4 mps 742 mmHg 70%
    18:00 +21°C° 0.1 mm 3 mps 743 mmHg 74%
    19:00 +19°C° 0.1 mm 3 mps 743 mmHg 79%
    20:00 +18°C° 0.1 mm 2 mps 743 mmHg 84%
    21:00 +17°C° 0 mm 2 mps 743 mmHg 85%
    22:00 +17°C° 0 mm 2 mps 743 mmHg 86%
    23:00 +16°C° 0 mm 2 mps 744 mmHg 88%

    Tomorrow, 20 July, Saturday

    Time Temperature Precipitation Wind Pressure Humidity
    00:00 +16°C° 0 mm 2 mps 744 mmHg 88%
    01:00 +15°C° 0 mm 2 mps 744 mmHg 88%
    02:00 +15°C° 0 mm 2 mps 744 mmHg 88%
    03:00 +15°C° 0 mm 2 mps 744 mmHg 88%
    04:00 +15°C° 0 mm 2 mps 744 mmHg 88%
    05:00 +15°C° 0 mm 2 mps 745 mmHg 89%
    06:00 +17°C° 0 mm 3 mps 745 mmHg 83%
    07:00 +19°C° 0 mm 3 mps 745 mmHg 78%
    08:00 +21°C° 0 mm 3 mps 745 mmHg 73%
    09:00 +22°C° 0 mm 3 mps 745 mmHg 68%
    10:00 +23°C° 0 mm 4 mps 745 mmHg 63%
    11:00 +25°C° 0 mm 4 mps 746 mmHg 58%
    12:00 +26°C° 0.2 mm 4 mps 745 mmHg 58%
    13:00 +26°C° 0.2 mm 4 mps 745 mmHg 57%
    14:00 +26°C° 0.2 mm 4 mps 745 mmHg 57%
    15:00 +26°C° 0.1 mm 4 mps 745 mmHg 59%
    16:00 +26°C° 0.1 mm 4 mps 745 mmHg 62%
    17:00 +25°C° 0.1 mm 3 mps 745 mmHg 64%
    18:00 +24°C° 0.1 mm 3 mps 745 mmHg 69%
    19:00 +21°C° 0.1 mm 2 mps 745 mmHg 74%
    20:00 +21°C° 0.1 mm 1 mps 746 mmHg 78%
    21:00 +20°C° 0 mm 1 mps 746 mmHg 80%
    22:00 +20°C° 0 mm 1 mps 746 mmHg 81%
    23:00 +19°C° 0 mm 1 mps 746 mmHg 83%

    Day after tomorrow, 21 July, Sunday

    Time Temperature Precipitation Wind Pressure Humidity
    00:00 +19°C° 0 mm 1 mps 746 mmHg 83%
    01:00 +16°C° 0 mm 0 mps 746 mmHg 84%
    02:00 +16°C° 0 mm 0 mps 746 mmHg 84%
    03:00 +16°C° 0 mm 0 mps 746 mmHg 84%
    04:00 +17°C° 0 mm 0 mps 746 mmHg 84%
    05:00 +17°C° 0 mm 0 mps 746 mmHg 83%
    06:00 +18°C° 0 mm 0 mps 746 mmHg 78%
    07:00 +22°C° 0 mm 1 mps 746 mmHg 73%
    08:00 +23°C° 0 mm 1 mps 746 mmHg 67%
    09:00 +24°C° 0.1 mm 1 mps 746 mmHg 63%
    10:00 +25°C° 0.1 mm 1 mps 746 mmHg 59%
    11:00 +26°C° 0.1 mm 1 mps 746 mmHg 55%
    12:00 +26°C° 0.1 mm 1 mps 745 mmHg 56%
    13:00 +26°C° 0.1 mm 1 mps 745 mmHg 57%
    14:00 +26°C° 0.1 mm 1 mps 745 mmHg 58%
    15:00 +26°C° 0 mm 1 mps 745 mmHg 57%
    16:00 +27°C° 0 mm 1 mps 745 mmHg 57%
    17:00 +25°C° 0 mm 0 mps 745 mmHg 56%
    18:00 +25°C° 0.2 mm 1 mps 745 mmHg 62%
    19:00 +23°C° 0.2 mm 1 mps 744 mmHg 69%
    20:00 +21°C° 0.2 mm 2 mps 744 mmHg 75%
    21:00 +20°C° 0.1 mm 2 mps 744 mmHg 79%
    22:00 +19°C° 0.1 mm 2 mps 744 mmHg 82%
    23:00 +19°C° 0.1 mm 2 mps 745 mmHg 85%

    22 July, Monday

    Time Temperature Precipitation Wind Pressure Humidity
    00:00 +18°C° 0 mm 2 mps 744 mmHg 86%
    01:00 +19°C° 0 mm 1 mps 744 mmHg 87%
    02:00 +19°C° 0 mm 1 mps 744 mmHg 88%
    03:00 +19°C° 0 mm 1 mps 744 mmHg 88%
    04:00 +19°C° 0 mm 1 mps 744 mmHg 88%
    05:00 +19°C° 0 mm 1 mps 744 mmHg 88%
    06:00 +21°C° 0 mm 1 mps 744 mmHg 82%
    07:00 +22°C° 0 mm 1 mps 743 mmHg 77%
    08:00 +24°C° 0 mm 1 mps 743 mmHg 71%
    09:00 +25°C° 0.3 mm 2 mps 743 mmHg 67%
    10:00 +27°C° 0.3 mm 2 mps 743 mmHg 63%
    11:00 +28°C° 0.3 mm 3 mps 743 mmHg 59%
    12:00 +28°C° 0.6 mm 3 mps 742 mmHg 60%
    13:00 +28°C° 0.6 mm 4 mps 742 mmHg 61%
    14:00 +28°C° 0.6 mm 4 mps 742 mmHg 62%
    15:00 +27°C° 0.6 mm 3 mps 741 mmHg 67%
    16:00 +26°C° 0.6 mm 2 mps 741 mmHg 72%
    17:00 +25°C° 0.6 mm 2 mps 741 mmHg 77%
    18:00 +24°C° 0.8 mm 2 mps 741 mmHg 80%
    19:00 +23°C° 0.8 mm 2 mps 740 mmHg 84%
    20:00 +21°C° 0.8 mm 2 mps 740 mmHg 87%
    21:00 +20°C° 0 mm 2 mps 740 mmHg 89%
    22:00 +19°C° 0 mm 2 mps 740 mmHg 91%
    23:00 +20°C° 0 mm 1 mps 740 mmHg 92%

    23 July, Tuesday

    Time Temperature Precipitation Wind Pressure Humidity
    00:00 +18°C° 0 mm 2 mps 740 mmHg 94%
    01:00 +18°C° 0 mm 2 mps 740 mmHg 95%
    02:00 +18°C° 0 mm 2 mps 739 mmHg 96%
    03:00 +17°C° 0 mm 2 mps 739 mmHg 96%
    04:00 +17°C° 0 mm 2 mps 739 mmHg 97%
    05:00 +17°C° 0 mm 2 mps 739 mmHg 97%
    06:00 +18°C° 0 mm 2 mps 739 mmHg 94%
    07:00 +19°C° 0 mm 3 mps 739 mmHg 91%
    08:00 +19°C° 0 mm 3 mps 739 mmHg 88%
    09:00 +20°C° 0.1 mm 3 mps 739 mmHg 81%
    10:00 +22°C° 0.1 mm 3 mps 739 mmHg 75%
    11:00 +24°C° 0.1 mm 3 mps 739 mmHg 68%
    12:00 +24°C° 0.4 mm 3 mps 739 mmHg 68%
    13:00 +24°C° 0.4 mm 3 mps 739 mmHg 68%
    14:00 +23°C° 0.4 mm 4 mps 739 mmHg 68%
    15:00 +23°C° 0.5 mm 4 mps 738 mmHg 70%
    16:00 +22°C° 0.5 mm 4 mps 738 mmHg 73%
    17:00 +22°C° 0.5 mm 4 mps 738 mmHg 75%
    18:00 +20°C° 0.1 mm 3 mps 738 mmHg 79%
    19:00 +19°C° 0.1 mm 2 mps 738 mmHg 83%
    20:00 +19°C° 0.1 mm 1 mps 738 mmHg 87%
    21:00 +18°C° 0 mm 1 mps 738 mmHg 89%
    22:00 +18°C° 0 mm 1 mps 738 mmHg 90%
    23:00 +16°C° 0 mm 1 mps 738 mmHg 91%

    24 July, Wednesday

    Time Temperature Precipitation Wind Pressure Humidity
    00:00 +16°C° 0 mm 1 mps 738 mmHg 92%
    01:00 +16°C° 0 mm 1 mps 738 mmHg 93%
    02:00 +15°C° 0 mm 1 mps 737 mmHg 94%
    03:00 +15°C° 0 mm 1 mps 737 mmHg 94%
    04:00 +15°C° 0 mm 1 mps 737 mmHg 94%
    05:00 +15°C° 0 mm 1 mps 737 mmHg 94%
    06:00 +17°C° 0 mm 2 mps 738 mmHg 89%
    07:00 +18°C° 0 mm 2 mps 738 mmHg 83%
    08:00 +20°C° 0 mm 2 mps 738 mmHg 77%
    09:00 +21°C° 0.2 mm 3 mps 738 mmHg 72%
    10:00 +22°C° 0.2 mm 3 mps 738 mmHg 67%
    11:00 +24°C° 0.2 mm 3 mps 738 mmHg 62%
    12:00 +23°C° 0.6 mm 4 mps 738 mmHg 63%
    13:00 +23°C° 0.6 mm 4 mps 738 mmHg 65%
    14:00 +23°C° 0.6 mm 5 mps 738 mmHg 66%
    15:00 +23°C° 0.3 mm 5 mps 738 mmHg 69%
    16:00 +22°C° 0.3 mm 4 mps 738 mmHg 71%
    17:00 +22°C° 0.3 mm 4 mps 739 mmHg 74%
    18:00 +21°C° 0.1 mm 4 mps 739 mmHg 79%
    19:00 +19°C° 0.1 mm 4 mps 739 mmHg 84%
    20:00 +17°C° 0.1 mm 4 mps 739 mmHg 89%
    21:00 +17°C° 0 mm 4 mps 739 mmHg 89%
    22:00 +16°C° 0 mm 3 mps 740 mmHg 89%
    23:00 +16°C° 0 mm 3 mps 740 mmHg 89%
    Show more